Current Version              Previous Version:    01  02  03  04  05  06  07  08  09  10  11  12  13  14  15  16  17  18  19  20  21  22  23  24  25  26  27  28  29  30  
   31  32  33  34  35  36  37  38  39  40  41  42  43  44  45  46  47  48  49  50  51  52  53  54  55  56  57  58  59  60  

[Printable]
670
ASUS44 KLUB 210810
RWRTX
WEST TEXAS WEATHER ROUNDUP
NATIONAL WEATHER SERVICE LUBBOCK TX
300 AM CDT TUE OCT 21 2014

NOTE: "FAIR" INDICATES FEW OR NO CLOUDS BELOW 12,000 FEET WITH NO
SIGNIFICANT WEATHER AND/OR OBSTRUCTIONS TO VISIBILITY.

TXZ004-006>008-010-012-014-016-OKZ002-210900-
TEXAS PANHANDLE/OKLAHOMA PANHANDLE

CITY           SKY/WX    TMP DP  RH WIND       PRES   REMARKS
AMARILLO       CLEAR     56  51  84 S8        30.12S
BORGER         CLEAR     62  51  67 SW6       30.09S
CANADIAN       CLEAR     57  55  94 CALM      30.05F
DALHART        CLEAR     49  45  86 CALM      30.12S
DUMAS          CLEAR     53  48  84 SW7       30.10S
GUYMON         CLEAR     53  51  93 CALM      30.07F
HEREFORD       CLEAR     51  50  95 CALM      30.13S
PAMPA          CLEAR     55  51  87 SW7       30.11S
PERRYTON       CLEAR     55  53  94 SE5       30.07S
$$

TXZ026-029-035-045-048-210900-
SOUTHERN PANHANDLE/SOUTH PLAINS/ROLLING PLAINS

CITY           SKY/WX    TMP DP  RH WIND       PRES   REMARKS
CHILDRESS      CLEAR     61  54  77 S7        30.07S
SEMINOLE       PTCLDY    57  51  79 CALM      30.11S
LUBBOCK        PTCLDY    59  51  75 S5        30.11R
PLAINVIEW      PTCLDY    52  51  93 CALM      30.11S
SNYDER         CLEAR     60  53  77 S5        30.09S
$$

TXZ052-054-060>062-072-078-127-140-154-169-210900-
PERMIAN BASIN/CONCHO VALLEY/BIG COUNTRY/EDWARDS PLATEAU

CITY           SKY/WX    TMP DP  RH WIND       PRES   REMARKS
ABILENE        CLEAR     63  55  75 S7        30.08R
BIG SPRING     PTCLDY    61  53  73 E7        30.10F
BRADY          CLEAR     59  55  88 CALM      30.06F
BROWNWOOD      MOCLDY    57  55  94 CALM      30.07S
JUNCTION       CLEAR     56  53  90 NW6       30.07S
MIDLAND        PTCLDY    61  51  70 SE3       30.08S
ODESSA         PTCLDY    61  51  70 SE5       30.09S
SAN ANGELO     CLEAR     57  50  77 CALM      30.07S
SONORA         CLEAR     64  55  72 SE5       30.11S
SWEETWATER     CLEAR     61  54  78 S8        30.11F
WINK           PTCLDY    61  59  93 E3        30.06S
$$

TXZ055-058-074-075-080-082-210900-
FAR WEST/SOUTHWEST MOUNTAINS/TRANS PECOS

CITY           SKY/WX    TMP DP  RH WIND       PRES   REMARKS
ALPINE         CLOUDY    59  55  88 CALM      30.17R
DRYDEN           N/A     64  62  93 NE7       30.03R
EL PASO        PTCLDY    61  54  77 NE6       30.08R
FORT STOCKTON  MOCLDY    62  58  86 SE9       30.06S
GUADALUPE PASS CLOUDY    55  54  96 NE15      30.17S FOG
MARFA          CLOUDY    57  55  94 S3        30.16R
PECOS          CLOUDY    63  61  94 CALM      30.06S
PRESIDIO       CLOUDY    67  59  75 N8        30.03S
$$

TXZ014-016-019-021>030-083-210900
TEXAS TECH WEST TEXAS MESONET/TEXAS PANHANDLE/NORTHERN SOUTH PLAINS

CITY           SKY/WX    TMP DP  RH WIND       PRES   REMARKS
ABERNATHY 5ENE   N/A     53  50  92 S5        30.12S
AMARILLO 9NNE    N/A     51  49  94 SW1       30.11S
AMARILLO 7SSE    N/A     53  51  90 SW5       30.13S
AMHERST 1NE      N/A     51  49  92 SW5       30.13S
BOOTLEG 11WNW    N/A     51  49  91 SW9       30.16S
CANADIAN 6E      N/A     61  55  82 SE5       30.05S
CAPROCK CYN SP   N/A     64  54  72 SW8       30.09S
CHILDRESS 2NNE   N/A     62  54  77 S6        30.06S
CLARENDON 2WSW   N/A     56  52  86 SW6       30.10R
CLAUDE 12SW      N/A     61  53  74 SW2       30.12S
DIMMITT 2NE      N/A     57  51  81 SW7       30.13S
FLOYDADA 2NNE    N/A     51  49  90 SW3       30.11S
FRIONA 2NE       N/A     51  49  93 SW2       30.14F
GOODLETT 3W      N/A     62  54  75 S2        30.05S
HART 3N          N/A     50  48  93 W6        30.13S
HEREFORD 2NW     N/A     51  46  83 SW5       30.13S
MCLEAN 1E        N/A     60  53  79 S6        30.08S
MEMPHIS 1NE      N/A     58  52  80 NW1       30.07S
MULESHOE 2SSW    N/A     49  48  96 SW3       30.14S
OLTON 6S         N/A     53  50  90 SW6       30.12S
PALO DURO SP     N/A     58  51  79 SW1       30.13S
PAMPA 2E         N/A     56  51  83 S6        30.10S
PLAINVIEW 1S     N/A     53  51  94 SW1       30.12R
SILVERTON 7ESE   N/A     54  50  87 SW7       30.11S
TULIA 2ENE       N/A     56  52  86 SW7       30.12S
TURKEY 2WSW      N/A     60  55  81 SW8       30.07S
UMBARGER 3NNE    N/A     51  49  90 SW6       30.13S
$$

TXZ033>036-039>041-045>048-210900
TEXAS TECH WEST TEXAS MESONET/SOUTH PLAINS

CITY           SKY/WX    TMP DP  RH WIND       PRES   REMARKS
AIKEN 3WSW       N/A     53  51  94 SW5       30.13R
ANDREWS 2NE      N/A     57  50  77 SE3       30.10S
ANTON 6SSW       N/A     53  51  90 SW1       30.12S
BROWNFIELD 2S    N/A     55  49  81 S2        30.11S
DENVR CTY 7WNW   N/A     54  50  85 E2        30.11F
GAIL 2ESE        N/A     57  50  78 S3        30.08F
LAMESA 2SE       N/A     56  50  82 SE5       30.10F
LEVELLAND 4S     N/A     51  48  90 S5        30.12S
LUBBOCK 3WNW     N/A     57  50  76 S5        30.11S
MORTON 1ENE      N/A     50  49  94 W2        30.13S
ODONNELL 1N      N/A     58  50  73 S6        30.10F
PLAINS 3N        N/A     57  50  78 SE2       30.12F
RALLS 1SE        N/A     56  51  85 SW5       30.12R
REESE CENTER     N/A     52  49  90 S3        30.11S
SEMINOLE 2NNE    N/A     55  50  82 CALM      30.11S
SLATON 2NE       N/A     55  50  86 S8        30.11S
SNYDER 3E        N/A     58  53  83 SE5       30.08S
SUNDOWN 8SW      N/A     54  50  84 S6        30.12S
TAHOKA 3NNE      N/A     53  49  86 S2        30.11R
WOLFFORTH 6SSW   N/A     53  50  90 S3        30.12S
$$

TXZ031-032-036>038-042>044-210900-
TEXAS TECH WEST TEXAS MESONET/ROLLING PLAINS

CITY           SKY/WX    TMP DP  RH WIND       PRES   REMARKS
ASPERMONT 3NE    N/A     58  53  82 S6        30.06S
FLUVANNA 3WNW    N/A     58  51  78 SE7       30.09S
GRAHAM 5SSW      N/A     62  50  64 S5        30.10S
GUTHRIE 10WSW    N/A     61  53  77 SW3       30.07R
HASKELL 1NW      N/A     62  52  69 S3        30.06S
JAYTON 1SSE      N/A     58  53  83 SW2       30.07S
KNOX CITY 3NW    N/A     61  54  77 S3        30.06S
LK A HENRY 1NW   N/A     62  53  72 SW3       30.08S
NORTHFIELD 1S    N/A     60  55  82 S5        30.07R
ODELL 4ENE       N/A     65  57  76 S8        30.06R
PADUCAH 10SW     N/A     61  54  77 SW8       30.06S
POST 1NE         N/A     62  51  69 SW3       30.09S
RRING SPRGS 3N   N/A     58  54  86 SW7       30.09R
SPUR 1W          N/A     53  50  90 NW3       30.08R
WEINERT 2NNE     N/A     60  54  82 S3        30.06S
WHITE RVR 6NE    N/A     62  52  69 S3        30.09S
$$

TXZ052-054-060>062-072-078-127-140-154-169-210900-
TEXAS TECH WEST TEXAS MESONET/PERMIAN BASIN/
CONCHO VALLEY/BIG COUNTRY/EDWARDS PLATEAU

CITY           SKY/WX    TMP DP  RH WIND       PRES   REMARKS
COYANOSA 2N      N/A     60  58  91 NE2       30.07R
JUNCTION 1SSW    N/A     54  52  93 NE3       30.08S
MERTZON 3NNE     N/A     52  47  83 CALM      30.09S
SAN ANGELO 7NW   N/A     56  49  80 NE1       30.08S
STRLNG CT 4WSW   N/A     54  49  84 E1        30.09S
ST LAWRNCE 5SW   N/A     57  51  79 E6        30.09S
SWEETWATR 11SW   N/A     58  54  84 SE7       30.10S
WALL 1E          N/A     57  51  80 S5        30.07S
$$

TXZ055-058-074-075-080-082-210900-
TEXAS TECH WEST TEXAS MESONET/FAR WEST/SOUTHWEST MOUNTAINS/TRANS PECOS

CITY           SKY/WX    TMP DP  RH WIND       PRES   REMARKS
PRSMN GAP BBNP   N/A     65  59  81 N12       30.03S
GUADLPE MTN NP   N/A     54  53  94 CALM      30.18S
$$